Regional Weather Roundup
Issued by NWS

Home | Current Version | Previous Version | Graphics & Text | Print | Product List | Glossary On
Versions: 1 2 3 4 5 6 7 8 9 10 11 12 13 14 15 16 17 18 19 20 21 22 23 24 25 26 27 28 29 30 31 32 33 34 35 36 37 38 39 40 41 42 43 44 45 46 47 48 49 50
000
ASUS43 KTOP 272159
RWRKS

WEATHER ROUNDUP FOR KANSAS
NATIONAL WEATHER SERVICE GOODLAND KS
400 PM CST SAT DEC 27 2014

NOTE:  "FAIR" INDICATES FEW OR NO CLOUDS BELOW 12,000 FEET WITH NO
SIGNIFICANT WEATHER AND/OR OBSTRUCTIONS TO VISIBILITY.

KSZ001>006-013>018-027>032-041>047-272300-
NORTHWEST KANSAS

CITY           SKY/WX    TMP DP  RH WIND       PRES   REMARKS
GOODLAND       SUNNY     28  16  60 W6        30.17R
HAYS           SUNNY     30  12  47 W12       30.25S WCI  21
HILL CITY      SUNNY     28  17  63 W9        30.25R
RUSSELL        SUNNY     30  18  60 NW8       30.25S
$$

KSZ061>065-074>080-084>089-272300-
SOUTHWEST KANSAS

CITY           SKY/WX    TMP DP  RH WIND       PRES   REMARKS
DODGE CITY     SUNNY     34  16  47 W13       30.24R WCI  25
ELKHART          N/A     34  17  50 NW2         N/A
GARDEN CITY    SUNNY     32  16  51 NW12      30.22S WCI  23
GREAT BEND     SUNNY     30  18  59 NW9       30.27R
LIBERAL        SUNNY     34  18  51 NW8       30.26S
$$

KSZ066>073-081>083-090>101-272300-
SOUTHEAST KANSAS

CITY           SKY/WX    TMP DP  RH WIND       PRES   REMARKS
CHANUTE        PTSUNNY   35  20  54 NW14      30.26R WCI  26
COFFEYVILLE    CLOUDY    36  20  52 N14       30.27R WCI  27
HUTCHINSON     MOSUNNY   34  16  47 NW9       30.27S
MEDICINE LODGE   N/A     36  17  46 NW9       30.27S
NEWTON         MOSUNNY   32  16  51 NW13      30.28R WCI  22
PARSONS        CLOUDY    35  21  56 NW12      30.27R WCI  27
WICHITA INTL   SUNNY     36  17  46 NW8       30.27S
WICHITA JABRA  SUNNY     34  18  52 NW9       30.27R
WINFIELD       MOSUNNY   35  19  52 NW13      30.29R WCI  26
$$

KSZ007>012-019>026-033>040-048>060-102>105-272300-
NORTHEAST KANSAS

CITY           SKY/WX    TMP DP  RH WIND       PRES   REMARKS
CONCORDIA      SUNNY     30  16  56 NW9       30.26R
EMPORIA        SUNNY     32  17  54 NW10      30.26R WCI  24
LAWRENCE       PTCLDY    34  19  54 NW10      30.26R WCI  26
MANHATTAN      SUNNY     32  18  56 W8        30.28R
OLATHE IND     CLOUDY    32  20  61 NW10      30.24R WCI  24
OLATHE EXE     MOCLDY    33  20  58 N9        30.23R
SALINA         MOSUNNY   32  16  51 NW12      30.29R WCI  23
TOPEKA BILLARD CLEAR     35  18  49 NW8       30.27R
TOPEKA FORBES  CLEAR     33  18  53 W9        30.25R
$$


USA.gov is the U.S. government's official web portal to all federal, state and local government web resources and services.